• Em Portugal
  • Lista de países
  • Para 7 dias
  • Temperatura da água
  • Mapas de satélite
  • Mapa do tempo
  • Widgets de tempo
  • user-avatar
    Iniciar Sessão

    Previsão horária em Darvin

    Hoje, 22 Outubro, Segunda-feira

    Tempo Temperatura Precipitação Vento Pressão Humidade
    00:00 +31°C° 0 mm 3 m/s 758 mmHg 71%
    01:00 +30°C° 0 mm 2 m/s 758 mmHg 72%
    02:00 +30°C° 0 mm 2 m/s 757 mmHg 73%
    03:00 +30°C° 0 mm 2 m/s 757 mmHg 75%
    04:00 +30°C° 0 mm 1 m/s 757 mmHg 75%
    05:00 +29°C° 0 mm 1 m/s 758 mmHg 76%
    06:00 +29°C° 0 mm 1 m/s 758 mmHg 77%
    07:00 +32°C° 0 mm 1 m/s 758 mmHg 67%
    08:00 +34°C° 0 mm 1 m/s 758 mmHg 57%
    09:00 +36°C° 0 mm 1 m/s 759 mmHg 47%
    10:00 +38°C° 0 mm 2 m/s 758 mmHg 43%
    11:00 +40°C° 0 mm 2 m/s 758 mmHg 39%
    12:00 +42°C° 0 mm 3 m/s 758 mmHg 35%
    13:00 +39°C° 0.2 mm 3 m/s 757 mmHg 39%
    14:00 +38°C° 0.2 mm 4 m/s 757 mmHg 44%
    15:00 +36°C° 0.2 mm 4 m/s 756 mmHg 48%
    16:00 +36°C° 0.2 mm 4 m/s 756 mmHg 52%
    17:00 +35°C° 0.2 mm 4 m/s 756 mmHg 56%
    18:00 +34°C° 0.2 mm 4 m/s 756 mmHg 60%
    19:00 +33°C° 0.1 mm 4 m/s 756 mmHg 62%
    20:00 +33°C° 0.1 mm 4 m/s 757 mmHg 64%
    21:00 +32°C° 0.1 mm 4 m/s 757 mmHg 66%
    22:00 +31°C° 0.1 mm 3 m/s 757 mmHg 68%
    23:00 +31°C° 0.1 mm 3 m/s 758 mmHg 70%

    Amanhã, 23 Outubro, Terça-feira

    Tempo Temperatura Precipitação Vento Pressão Humidade
    00:00 +30°C° 0.1 mm 3 m/s 758 mmHg 71%
    01:00 +30°C° 0.5 mm 2 m/s 758 mmHg 72%
    02:00 +30°C° 0.5 mm 2 m/s 757 mmHg 73%
    03:00 +30°C° 0.5 mm 2 m/s 757 mmHg 74%
    04:00 +29°C° 0 mm 1 m/s 757 mmHg 75%
    05:00 +29°C° 0 mm 1 m/s 757 mmHg 75%
    06:00 +29°C° 0 mm 1 m/s 758 mmHg 76%
    07:00 +31°C° 0 mm 1 m/s 758 mmHg 68%
    08:00 +34°C° 0 mm 2 m/s 758 mmHg 59%
    09:00 +35°C° 0 mm 2 m/s 758 mmHg 51%
    10:00 +36°C° 0 mm 3 m/s 758 mmHg 48%
    11:00 +37°C° 0 mm 3 m/s 758 mmHg 45%
    12:00 +38°C° 0 mm 3 m/s 757 mmHg 41%
    13:00 +38°C° 0 mm 3 m/s 757 mmHg 43%
    14:00 +37°C° 0 mm 4 m/s 756 mmHg 44%
    15:00 +37°C° 0 mm 4 m/s 756 mmHg 45%
    16:00 +37°C° 0 mm 4 m/s 756 mmHg 47%
    17:00 +36°C° 0 mm 4 m/s 756 mmHg 48%
    18:00 +36°C° 0 mm 4 m/s 756 mmHg 50%
    19:00 +35°C° 0.4 mm 3 m/s 757 mmHg 54%
    20:00 +34°C° 0.4 mm 3 m/s 757 mmHg 58%
    21:00 +32°C° 0.4 mm 2 m/s 758 mmHg 62%
    22:00 +31°C° 0 mm 2 m/s 758 mmHg 64%
    23:00 +31°C° 0 mm 2 m/s 758 mmHg 66%

    Depois de amanhã, 24 Outubro, Quarta-feira

    Tempo Temperatura Precipitação Vento Pressão Humidade
    00:00 +31°C° 0 mm 2 m/s 758 mmHg 67%
    01:00 +31°C° 0 mm 2 m/s 758 mmHg 69%
    02:00 +30°C° 0 mm 2 m/s 757 mmHg 70%
    03:00 +30°C° 0 mm 2 m/s 757 mmHg 72%
    04:00 +30°C° 0.1 mm 2 m/s 757 mmHg 73%
    05:00 +30°C° 0.1 mm 2 m/s 758 mmHg 74%
    06:00 +30°C° 0.1 mm 2 m/s 758 mmHg 74%
    07:00 +31°C° 0 mm 2 m/s 758 mmHg 66%
    08:00 +34°C° 0 mm 3 m/s 758 mmHg 58%
    09:00 +36°C° 0 mm 3 m/s 759 mmHg 49%
    10:00 +38°C° 0 mm 3 m/s 758 mmHg 44%
    11:00 +39°C° 0 mm 3 m/s 758 mmHg 40%
    12:00 +42°C° 0 mm 3 m/s 758 mmHg 35%
    13:00 +40°C° 0 mm 4 m/s 757 mmHg 38%
    14:00 +38°C° 0 mm 4 m/s 756 mmHg 42%
    15:00 +36°C° 0 mm 5 m/s 756 mmHg 45%
    16:00 +35°C° 0.6 mm 5 m/s 756 mmHg 49%
    17:00 +35°C° 0.6 mm 4 m/s 756 mmHg 53%
    18:00 +34°C° 0.6 mm 4 m/s 757 mmHg 57%
    19:00 +33°C° 0.6 mm 4 m/s 757 mmHg 62%
    20:00 +31°C° 0.6 mm 3 m/s 758 mmHg 67%
    21:00 +30°C° 0.6 mm 2 m/s 759 mmHg 72%
    22:00 +30°C° 1.4 mm 2 m/s 759 mmHg 73%
    23:00 +29°C° 1.4 mm 2 m/s 759 mmHg 74%

    25 Outubro, Quinta-feira

    Tempo Temperatura Precipitação Vento Pressão Humidade
    00:00 +29°C° 1.4 mm 2 m/s 759 mmHg 75%
    01:00 +29°C° 0.1 mm 2 m/s 758 mmHg 76%
    02:00 +29°C° 0.1 mm 1 m/s 758 mmHg 76%
    03:00 +28°C° 0.1 mm 1 m/s 758 mmHg 77%
    04:00 +28°C° 0 mm 1 m/s 758 mmHg 78%
    05:00 +28°C° 0 mm 1 m/s 758 mmHg 78%
    06:00 +28°C° 0 mm 1 m/s 759 mmHg 79%
    07:00 +30°C° 0 mm 1 m/s 759 mmHg 69%
    08:00 +32°C° 0 mm 1 m/s 759 mmHg 60%
    09:00 +35°C° 0 mm 1 m/s 760 mmHg 50%
    10:00 +37°C° 0 mm 2 m/s 759 mmHg 44%
    11:00 +38°C° 0 mm 2 m/s 759 mmHg 39%
    12:00 +40°C° 0 mm 3 m/s 759 mmHg 33%
    13:00 +39°C° 0 mm 3 m/s 758 mmHg 34%
    14:00 +38°C° 0 mm 4 m/s 757 mmHg 35%
    15:00 +38°C° 0 mm 4 m/s 757 mmHg 35%
    16:00 +37°C° 0.1 mm 4 m/s 757 mmHg 38%
    17:00 +36°C° 0.1 mm 4 m/s 757 mmHg 41%
    18:00 +35°C° 0.1 mm 3 m/s 757 mmHg 44%
    19:00 +34°C° 0.1 mm 3 m/s 758 mmHg 51%
    20:00 +33°C° 0.1 mm 4 m/s 759 mmHg 58%
    21:00 +32°C° 0.1 mm 4 m/s 759 mmHg 65%
    22:00 +31°C° 0 mm 3 m/s 759 mmHg 67%
    23:00 +31°C° 0 mm 3 m/s 759 mmHg 68%

    26 Outubro, Sexta-feira

    Tempo Temperatura Precipitação Vento Pressão Humidade
    00:00 +30°C° 0 mm 3 m/s 759 mmHg 70%
    01:00 +30°C° 0 mm 2 m/s 759 mmHg 70%
    02:00 +30°C° 0 mm 2 m/s 758 mmHg 71%
    03:00 +30°C° 0 mm 1 m/s 758 mmHg 71%
    04:00 +29°C° 0 mm 1 m/s 758 mmHg 72%
    05:00 +29°C° 0 mm 1 m/s 759 mmHg 72%
    06:00 +29°C° 0 mm 1 m/s 759 mmHg 73%
    07:00 +31°C° 0 mm 1 m/s 759 mmHg 64%
    08:00 +33°C° 0 mm 1 m/s 760 mmHg 55%
    09:00 +35°C° 0 mm 1 m/s 760 mmHg 47%
    10:00 +37°C° 0 mm 1 m/s 760 mmHg 42%
    11:00 +39°C° 0 mm 2 m/s 759 mmHg 38%
    12:00 +42°C° 0 mm 3 m/s 758 mmHg 34%
    13:00 +39°C° 0 mm 3 m/s 758 mmHg 38%
    14:00 +38°C° 0 mm 4 m/s 757 mmHg 43%
    15:00 +36°C° 0 mm 4 m/s 756 mmHg 47%
    16:00 +36°C° 0.2 mm 4 m/s 757 mmHg 50%
    17:00 +35°C° 0.2 mm 4 m/s 757 mmHg 53%
    18:00 +34°C° 0.2 mm 3 m/s 757 mmHg 56%
    19:00 +33°C° 0.3 mm 3 m/s 758 mmHg 59%
    20:00 +33°C° 0.3 mm 3 m/s 758 mmHg 63%
    21:00 +31°C° 0.3 mm 3 m/s 759 mmHg 66%
    22:00 +31°C° 0 mm 3 m/s 759 mmHg 67%
    23:00 +30°C° 0 mm 2 m/s 758 mmHg 67%

    27 Outubro, Sábado

    Tempo Temperatura Precipitação Vento Pressão Humidade
    00:00 +30°C° 0 mm 2 m/s 758 mmHg 68%
    01:00 +30°C° 0 mm 2 m/s 758 mmHg 69%
    02:00 +30°C° 0 mm 2 m/s 757 mmHg 70%
    03:00 +30°C° 0 mm 2 m/s 757 mmHg 71%
    04:00 +30°C° 0.1 mm 2 m/s 757 mmHg 72%
    05:00 +29°C° 0.1 mm 2 m/s 758 mmHg 73%
    06:00 +29°C° 0.1 mm 2 m/s 758 mmHg 74%
    07:00 +31°C° 0 mm 2 m/s 759 mmHg 69%
    08:00 +32°C° 0 mm 1 m/s 759 mmHg 63%
    09:00 +33°C° 0 mm 1 m/s 759 mmHg 58%
    10:00 +36°C° 0.1 mm 2 m/s 758 mmHg 53%
    11:00 +37°C° 0.1 mm 3 m/s 758 mmHg 49%
    12:00 +38°C° 0.1 mm 4 m/s 757 mmHg 44%
    13:00 +38°C° 0.1 mm 4 m/s 757 mmHg 46%
    14:00 +37°C° 0.1 mm 4 m/s 756 mmHg 48%
    15:00 +36°C° 0.1 mm 5 m/s 756 mmHg 50%
    16:00 +35°C° 0.2 mm 5 m/s 756 mmHg 52%
    17:00 +34°C° 0.2 mm 4 m/s 756 mmHg 55%
    18:00 +33°C° 0.2 mm 4 m/s 756 mmHg 57%
    19:00 +33°C° 0 mm 4 m/s 757 mmHg 59%
    20:00 +32°C° 0 mm 4 m/s 757 mmHg 61%
    21:00 +31°C° 0 mm 3 m/s 758 mmHg 63%
    22:00 +31°C° 0 mm 3 m/s 757 mmHg 65%
    23:00 +30°C° 0 mm 3 m/s 757 mmHg 67%

    28 Outubro, Domingo

    Tempo Temperatura Precipitação Vento Pressão Humidade
    00:00 +30°C° 0 mm 3 m/s 757 mmHg 69%
    01:00 +30°C° 0 mm 3 m/s 757 mmHg 71%
    02:00 +30°C° 0 mm 3 m/s 756 mmHg 73%
    03:00 +30°C° 0 mm 3 m/s 756 mmHg 74%
    04:00 +30°C° 0.1 mm 3 m/s 757 mmHg 75%
    05:00 +29°C° 0.1 mm 3 m/s 757 mmHg 76%
    06:00 +29°C° 0.1 mm 2 m/s 757 mmHg 78%
    07:00 +31°C° 0 mm 3 m/s 758 mmHg 71%
    08:00 +33°C° 0 mm 3 m/s 758 mmHg 65%
    09:00 +35°C° 0 mm 3 m/s 758 mmHg 59%
    10:00 +36°C° 0 mm 3 m/s 757 mmHg 55%
    11:00 +37°C° 0 mm 4 m/s 757 mmHg 51%
    12:00 +38°C° 0 mm 4 m/s 756 mmHg 47%
    13:00 +38°C° 0.1 mm 4 m/s 756 mmHg 47%
    14:00 +39°C° 0.1 mm 5 m/s 755 mmHg 46%
    15:00 +39°C° 0.1 mm 5 m/s 755 mmHg 45%
    16:00 +36°C° 0.1 mm 5 m/s 755 mmHg 50%
    17:00 +35°C° 0.1 mm 5 m/s 755 mmHg 54%
    18:00 +34°C° 0.1 mm 5 m/s 756 mmHg 59%
    19:00 +33°C° 0.1 mm 4 m/s 756 mmHg 64%
    20:00 +33°C° 0.1 mm 4 m/s 756 mmHg 69%
    21:00 +32°C° 0.1 mm 4 m/s 757 mmHg 74%
    22:00 +32°C° 0 mm 4 m/s 757 mmHg 75%
    23:00 +30°C° 0 mm 3 m/s 757 mmHg 77%
    Mostrar mais